Location: A O Calhoun Middle School
(33.2198°N, 97.1397°W)
Time: 09:39:49
(UTC+00:00)

H-2A R/B - Pass Details

Date: 10 July 2022
Orbit: 577 x 651 km, 98.5° (Epoch: 07 August)

Event Time Altitude Azimuth Distance (km) Brightness Sun altitude
Rises 03:22:53 0° 0° (N) 2,962 6.2 -18.2°
Reaches altitude 10° 03:25:16 10° 350° (N) 2,055 5.5 -18.6°
Maximum altitude 03:29:13 31° 289° (WNW) 1,135 4.0 -19.2°
Drops below altitude 10° 03:33:10 10° 227° (SW) 2,050 4.7 -19.8°
Sets 03:35:33 0° 217° (SW) 2,955 5.5 -20.1°
